Location: Altmatt
(47.1333°N, 8.7000°E)
Time: 17:42:44
(UTC+00:00)

Spot 4 - Pass Details

Date: 13 July 2020
Orbit: 705 x 722 km, 98.3° (Epoch: 12 August)

Event Time Altitude Azimuth Distance (km) Brightness Sun altitude
Exits shadow 22:37:24 41° 196° (SSW) 1,019 4.2 -20.2°
Maximum altitude 22:38:53 63° 258° (WSW) 790 4.0 -20.2°
Drops below altitude 10° 22:43:39 10° 340° (NNW) 2,186 7.5 -20.4°
Sets 22:45:56 0° 344° (NNW) 3,109 8.7 -20.5°
